Regional Weather Roundup
Issued by NWS Charleston, WV

Home | Current Version | Previous Version | Graphics & Text | Print | Product List | Glossary On
Versions: 1 2 3 4 5 6 7 8 9 10 11 12 13 14 15 16 17 18 19 20 21 22 23 24 25 26 27
000
ASUS41 KRLX 241110
RWRRLX
West Virginia Regional Weather Roundup
National Weather Service Charleston WV
600 AM EST SAT FEB 24 2018

Note: "fair" indicates few or no clouds below 12,000 feet with no
significant weather and/or obstructions to visibility.

WVZ003-241200-
Northern Panhandle of West Virginia

CITY           SKY/WX    TMP DP  RH WIND       PRES   REMARKS
WHEELING       CLOUDY    50  46  86 N9        30.14S
$$

WVZ009-241200-
Northwest West Virginia

CITY           SKY/WX    TMP DP  RH WIND       PRES   REMARKS
PARKERSBURG    LGT RAIN  54  53  97 N7        30.14F FOG
$$

WVZ006-241200-
Western West Virginia

CITY           SKY/WX    TMP DP  RH WIND       PRES   REMARKS
HUNTINGTON     FOG       58  57  97 N3        30.09S VSB 1/4
$$

WVZ015-241200-
West Central West Virginia

CITY           SKY/WX    TMP DP  RH WIND       PRES   REMARKS
CHARLESTON     FOG       56  56 100 N3        30.10S VSB 1
$$

WVZ022-031-241200-
North Central West Virginia

CITY           SKY/WX    TMP DP  RH WIND       PRES   REMARKS
CLARKSBURG     LGT RAIN  59  56  89 CALM      30.11S FOG
MORGANTOWN     HVY RAIN  57  55  93 CALM      30.14R FOG
$$

WVZ025-035-042-045-241200-
Southern West Virginia

CITY           SKY/WX    TMP DP  RH WIND       PRES   REMARKS
BECKLEY        FAIR      59  51  75 SW8       30.15F
LOGAN          CLOUDY    61  55  82 CALM      30.11S
BLUEFIELD      CLOUDY    60  49  66 SW5       30.19R
LEWISBURG      FAIR      51  50  97 N5        30.17S
$$

WVZ047-241200-
Northern Mountains of West Virginia

CITY           SKY/WX    TMP DP  RH WIND       PRES   REMARKS
ELKINS         CLOUDY    51  50  96 CALM      30.14F FOG
$$

WVZ052-241200-
Eastern Panhandle of West Virginia

CITY           SKY/WX    TMP DP  RH WIND       PRES   REMARKS
MARTINSBURG    FOG       43  43 100 CALM      30.13F VSB 1/4
PETERSBURG     CLOUDY    43  43  99 CALM      30.14S FOG
$$




USA.gov is the U.S. government's official web portal to all federal, state and local government web resources and services.